Location: Unspecified
(0.0000°N, 0.0000°E)
Time: 11:35:05
(UTC+00:00)

LightSail 2 - Pass Details

Date: 16 August 2019
Orbit: 696 x 730 km, 24.0° (Epoch: 07 December)

Event Time Altitude Azimuth Distance (km) Brightness Sun altitude
Exits shadow 02:07:28 -4° 61° (ENE) 3,624 9.4 -56.5°
Enters shadow 03:15:30 -51° 282° (WNW) 10,829 11.2 -40.7°
Maximum altitude 03:47:22 16° 21° (NNE) 1,817 7.6 -33.1°
